Starlink 35557

operational
NORAD ID: 66237 Int'l Des: 2025-245 Owner: SPXS Country: US Constellation: starlink
LEOCIRCULAR

Starlink 35557について

説明を読み込み中...

リアルタイム位置

3D地球を読み込み中...

次回通過

高度履歴

Altitude vs Time

uPlot chart will show altitude changes over time

軌道要素

1 66237U 25245D 25352.87925487 .00052536 00000-0 13124-2 0 9993
2 66237 53.1610 300.7062 0001978 109.4499 250.6719 15.39664503 8865
Epoch: Dec 18, 2025 • Age: 7 hours

現在のステータス

高度 464.4 km
速度 7.63 km/s
衛星直下点 -47.82°S, 20.49°E
打ち上げ日 Oct 29, 2025
運用期間 0.1 years
タイプ internet

技術仕様

分類 Payload
質量 575.00 kg
乾燥質量 530.00 kg
総質量 575.00 kg
長さ 0.30 m
直径 4.10 m
スパン 29.00 m
形状 Box + pan
製造者 SPXS
バスタイプ Starlink V2MO
フェーズステータス In Orbit
所有者/国 SPXS/US

大規模コンステレーション

Loading constellations...